Content
SEND FEEDBACK

Daily
Averages
Monthly
Summary
United States of America

GREENFIELD, MASSACHUSETTS


Home > North America > United States > Massachusetts
Elevation: 190 feet     Latitude: 42 37N     Longitude: 072 33W

WEATHER
 
SELECT A DAY
Number of Records: 216,687;   Date Range: 7/1/96 - 11/21/14
 
SHARE

PRINT THIS DATA

[ ← Previous Day ]
WEATHER ALMANAC - MARCH 4, 2014
[ Next Day → ]
[ °C ]   °F
Weather ElementAverageHighLow
Temperature12.1 °F24.1 °F (2:52 pm)-8 °F (5:52 am)
Dewpoint-2.3 °F9 °F (11:52 pm)-13 °F (3:52 am)
Humidity56.6 %91 % (7:52 am)29 % (1:52 pm)
Barometer30.32 in30.40 in (7:52 am)30.25 in (4:52 pm)
Wind Speed2.2 mph10.4 mph (12:52 pm)
Weather ElementAverage
Visibility9.6 mi
Wind DirectionNE (47.8 °)

Weather ElementTotal
Precipitation---
Heating Degree Days57 (Base 65)
Averaged from 23 records on March 4, 2014
WEATHER CONDITIONS BREAKOUT
WIND DIRECTION BREAKOUT
WEATHER BY HOUR - MARCH 4, 2014
[ °C ]   °F
Local TimeTemperatureDewpointHumidityBarometerVisibilityWind DirectionWind SpeedGust SpeedPrecipitationEventsConditions
1:52 AM-5.1 °F-9.0 °F83 %30.34 in9.0 miCalmClear
2:52 AM-6.0 °F-9.0 °F87 %30.33 in9.0 miCalmClear
3:52 AM-7.1 °F-13.0 °F75 %30.34 in9.0 miCalmClear
4:52 AM-7.1 °F-11.9 °F79 %30.34 in9.0 miCalmClear
5:52 AM-8.0 °F-13.0 °F79 %30.36 in9.0 miCalmClear
6:52 AM-7.1 °F-13.0 °F75 %30.39 in8.0 miCalmClear
7:52 AM-2.0 °F-4.0 °F91 %30.40 in7.0 miCalmClear
8:52 AM5.0 °F-2.0 °F73 %30.39 in10.0 miCalmClear
9:52 AM12.9 °F-4.0 °F47 %30.39 in10.0 miCalmOvercast
10:52 AM16.0 °F-6.0 °F38 %30.36 in10.0 miSouth (190°)8.1 mphClear
11:52 AM19.9 °F-4.0 °F35 %30.34 in10.0 miVariable3.5 mphClear
12:52 PM21.9 °F-2.9 °F34 %30.30 in10.0 miSSE (160°)10.4 mphClear
1:52 PM23.0 °F-5.1 °F29 %30.28 in10.0 miSSW (200°)6.9 mphClear
2:52 PM24.1 °F-2.9 °F31 %30.27 in10.0 miVariable5.8 mphClear
3:52 PM24.1 °F-0.9 °F34 %30.27 in10.0 miSouth (180°)8.1 mphOvercast
4:52 PM24.1 °F1.0 °F37 %30.25 in10.0 miSouth (190°)4.6 mphOvercast
5:52 PM24.1 °F3.0 °F40 %30.26 in10.0 miSouth (180°)3.5 mphOvercast
6:52 PM23.0 °F6.1 °F48 %30.27 in10.0 miCalmOvercast
7:52 PM21.9 °F7.0 °F53 %30.27 in10.0 miCalmOvercast
8:52 PM21.0 °F7.0 °F55 %30.28 in10.0 miCalmOvercast
9:52 PM21.0 °F7.0 °F55 %30.28 in10.0 miCalmOvercast
10:52 PM19.0 °F8.1 °F62 %30.28 in10.0 miCalmOvercast
11:52 PM19.9 °F9.0 °F62 %30.26 in10.0 miCalmOvercast
Hourly data recorded from KORE, located miles away from Greenfield, Massachusetts







STORIES FROM OUR PARTNERS